Location: Shenandoah County Park
(38.9356°N, 78.4524°W)
Time: 13:21:18
(UTC-04:00)

Envisat - Pass Details

Date: 02 June 2024
Orbit: 762 x 764 km, 98.3° (Epoch: 14 June)

Event Time Altitude Azimuth Distance (km) Brightness Sun altitude
Rises 04:36:30 0° 11° (NNE) 3,233 7.2 -12.3°
Reaches altitude 10° 04:38:49 10° 11° (N) 2,303 6.3 -12.0°
Maximum altitude 04:43:53 82° 285° (WNW) 774 3.0 -11.2°
Drops below altitude 10° 04:48:56 10° 198° (SSW) 2,287 5.0 -10.5°
Enters shadow 04:49:13 - 198° (SSW) 2,403 5.1 -10.5°
